Powrót do katalogu

ESSA 2

OT-2

AktywnyPogodaSSO
NORAD 2091·PAYLOAD·🇺🇸 United States

Wystrzelony Feb 28, 1966 z Cape Canaveral Space Force Station

Loading…

Następne Przeloty (najbliższe 24 godziny)

TLE

ŚwieżeSource: Space-Track

Epoka: Sep 14, 2026, 04:16 UTC

1 02091U 66016A   26257.17827207 -.00000029  00000-0  73630-4 0  9992
2 02091 101.2217 164.1600 0039308  75.7555  85.7804 12.69432336804916

Śledź ESSA 2 w czasie rzeczywistym z AllMySat

Download on the App Store